星链-6242 (STARLINK-6242 )

导读

STARLINK-6242是美国太空探索技术公司星链星座的成员,于2023年5月4日发射入轨。它承载了星链网络的通信任务,依托低轨卫星星座架构,为全球范围内用户提供高速互联网接入服务,覆盖偏远、基础设施匮乏区域,推进全球互联网络覆盖,也是 SpaceX 星链组网部署进程中的一环。

Basic Information
目录编号:
56424
目录名称:
STARLINK-6242
国际标识:
2023-061BC
轨道中心:
EARTH
卫星名称:
星链-6242
卫星全名:
星链-6242 (STARLINK-6242 )
卫星状态:
在轨 (已飞行1219 天)
发射日期:
2023-05-04 UTC
国别 :
美国 (US)
星等 :
--
Orbit Information
数据来源 国际轨道数据 AOE轨道数据
星历时间 2026-09-04T15:11:47+0800
5小时前
查看轨道信息
2026-08-29T08:00:00+0800
6天前
查看轨道信息
半长轴 6861.195km 6861.188km
偏心率 0.0001264 0.0001365
轨道倾角 43.000° 43.003°
近地点辐角 271.699° 286.355°
升交点赤经 251.044° 286.620°
平近点角 88.372° 308.484°
近地点 482.19km 482.114km
远地点 483.926km 483.988km
周期 94.267分钟 94.267分钟
每日圈数 15.275771 15.275796
Detailed Information
固有亮度:
5
最大亮度:
2.5
卫星平台:
Starlink v1.5
覆盖范围:
全球
运营商:
太空探索技术公司
运营商所在国:
美国
制造商(研发单位):
太空探索技术公司
制造商所在国:
美国
使用方式:
暂无
Satellite Introduction
星链(Starlink)计划是由太空探索技术公司(SpaceX)提出的一个巨型低轨卫星互联网星座项目,计划在2019年至2024年间在太空搭建由约1.2万颗卫星组成的“星链”网络,其中1584颗将部署在地球上空550千米处的近地轨道,并从2020年开始工作。该卫星仍在工作。
2D Orbit Map
3D Orbit Map
Orbit Altitude Analysis Chart
Orbit Inclination Analysis Chart
Orbit Comprehensive Analysis Chart
View Comprehensive Chart
Conjunction Data List
Event ID Objects TCA Miss Dist (km) Collision Risk Probability Collision Risk Index (CRI) Action
CDM_260906-135305-642405-984221
2026-09-06T
13:53:46+0000
0.061 km
近距离
1.316357E-3 极高风险 0.97
CDM_260905-164205-642405-984221
2026-09-05T
16:42:38+0000
0.581 km
远距离
9.430475E-5 中风险 0.74
CDM_260906-073705-642406-652821
2026-09-06T
07:37:34+0000
0.682 km
远距离
6.0421E-5 中风险 0.71
CDM_260906-091105-642406-652821
2026-09-06T
09:11:43+0000
0.882 km
远距离
2.657423E-5 中风险 0.63
CDM_260905-181605-642405-984221
2026-09-05T
18:16:47+0000
0.993 km
远距离
1.749429E-5 中风险 0.6
CDM_260906-152705-642405-984221
2026-09-06T
15:27:55+0000
1.427 km
极远距离
5.049168E-6 低风险 0.49
CDM_260906-121905-642405-984221
2026-09-06T
12:19:36+0000
1.505 km
极远距离
4.254355E-6 低风险 0.48
CDM_260905-150805-642405-984221
2026-09-05T
15:08:28+0000
1.563 km
极远距离
3.778445E-6 低风险 0.47
CDM_260905-195005-642405-984221
2026-09-05T
19:50:57+0000
2.130 km
极远距离
1.635358E-6 低风险 0.39
CDM_260906-060305-642406-652821
2026-09-06T
06:03:25+0000
2.195 km
极远距离
1.554285E-6 低风险 0.39